Probability
7 12 20 23 24 25 23 21 23 25 23 16 9 4 1 0 0 0 0 0 0 0 1 2 1 0 0 0 1 2 1 0 0 0 0 0 0 0 0 0 0 0 0
8 12 19 23 25 26 24 22 24 27 25 17 10 5 3 1 1 0 0 0 0 0 1 2 2 1 0 0 1 2 1 0 0 0 0 0 0 0 0 0 0 0 0
13 14 19 22 25 27 26 23 25 27 25 18 11 7 5 4 2 1 0 0 0 0 1 2 2 1 1 1 2 2 2 1 0 0 0 0 0 0 0 0 0 0 0
20 20 22 23 24 26 25 23 24 25 23 19 13 8 7 6 3 1 0 0 0 0 0 1 2 1 2 3 2 2 2 2 1 0 0 0 0 0 0 0 0 0 0
23 24 25 25 23 25 25 23 21 22 23 20 14 9 6 4 2 1 0 0 0 0 0 1 1 1 2 3 3 2 3 2 1 0 0 0 0 0 0 0 0 0 0
26 26 28 26 23 23 26 25 22 20 21 21 17 10 5 2 1 1 1 1 0 0 0 0 0 1 2 3 3 2 2 2 1 0 0 0 0 0 0 0 0 0 0
30 29 29 27 22 23 28 28 24 20 20 21 20 13 6 3 2 2 3 3 1 0 0 0 0 0 1 1 2 1 1 1 0 0 0 0 0 0 0 0 0 0 0
31 29 29 27 23 23 29 31 26 22 21 21 21 17 11 7 4 3 5 5 3 1 0 0 0 0 0 0 0 0 0 0 0 0 0 0 0 0 0 0 0 0 0
29 27 27 27 24 25 29 30 27 23 20 18 18 17 13 9 5 4 4 4 3 2 1 1 0 0 0 0 0 0 0 0 0 0 0 0 0 0 0 0 0 0 0
25 25 25 24 24 25 26 26 24 20 16 14 13 12 9 6 4 3 3 2 3 3 4 4 2 1 1 0 0 0 0 0 0 0 0 0 0 0 0 0 0 0 0
23 22 22 22 22 21 21 20 18 15 11 8 7 6 4 3 3 3 1 1 2 4 5 5 5 3 2 0 0 0 0 0 0 0 0 0 0 0 0 0 0 0 0
19 19 19 20 20 18 16 16 14 10 6 3 2 2 1 1 2 2 1 1 1 3 4 4 5 4 2 0 0 0 0 0 0 0 0 0 0 0 0 0 0 0 0
14 15 16 17 16 14 12 12 12 9 4 1 0 0 0 0 2 3 3 2 2 2 3 3 4 3 1 0 0 0 0 0 0 0 0 0 0 0 0 0 0 0 0
8 10 12 13 12 10 10 9 9 8 4 1 1 0 0 0 1 2 3 3 3 3 3 3 3 2 1 0 0 0 0 0 0 0 0 0 0 0 0 0 0 0 0
4 6 9 10 9 8 8 7 6 5 3 2 1 0 0 0 1 1 1 2 2 2 3 3 3 2 1 0 0 0 0 0 0 0 0 0 0 0 0 0 0 0 0
2 4 7 8 7 6 6 6 4 3 2 2 1 0 0 0 0 0 0 0 0 1 2 3 3 1 0 0 0 0 0 0 0 0 0 0 0 0 0 0 0 0 0
1 3 6 6 5 2 3 4 4 2 1 0 0 0 0 0 0 0 0 0 0 0 1 2 2 1 0 0 0 0 0 0 0 0 0 0 0 0 0 0 0 0 0
1 3 5 5 2 0 1 3 3 1 0 0 0 0 0 0 0 0 0 0 0 0 0 1 1 0 0 0 0 0 0 0 0 0 0 0 0 0 0 0 0 0 0
1 3 4 3 1 0 1 2 2 1 0 0 0 0 0 0 0 0 0 0 0 0 0 0 0 0 0 0 0 0 0 0 0 0 0 0 0 0 0 0 0 0 0
1 2 2 1 0 0 1 2 2 1 0 0 0 0 0 0 0 0 0 0 0 0 0 0 0 0 0 0 0 0 0 0 0 0 0 0 0 0 0 0 0 0 0
0 1 1 0 0 0 1 2 2 1 0 0 0 0 0 0 0 0 0 0 0 0 0 0 0 0 0 0 0 0 0 0 0 0 0 0 0 0 0 0 0 0 0
0 0 0 0 0 0 1 1 1 0 0 0 0 0 0 0 0 0 0 0 0 0 0 0 0 0 0 0 0 0 0 0 0 0 0 0 0 0 0 0 0 0 0
0 0 0 0 0 0 0 0 0 0 0 0 0 0 0 0 0 0 0 0 0 0 0 0 0 0 0 0 0 0 0 0 0 0 0 0 0 0 0 0 0 0 0
0 0 0 0 0 0 0 0 0 0 0 0 0 0 0 0 0 0 0 0 0 0 0 0 0 0 0 0 0 0 0 0 0 0 0 0 0 0 0 0 0 0 0
0 0 0 0 0 0 0 0 0 0 0 0 0 0 0 0 0 0 0 0 0 0 0 0 0 0 0 0 0 0 0 0 0 0 0 0 0 0 0 0 0 0 0
0 0 0 0 0 0 0 0 0 0 0 0 0 0 0 0 0 0 0 0 0 0 0 0 0 0 0 0 0 0 0 0 0 0 0 0 0 0 0 0 0 0 0
Wind_Speed
2 3 8 10 11 10 10 11 11 12 12 12 12 12 12 11 11 11 10 10 9 9 9 10 10 10 10 10 10 10 10 9 9 9 8 8 8 9 10 9 8 5 9
3 5 8 10 11 11 11 11 11 11 11 11 12 12 12 11 11 11 10 10 9 9 9 9 9 9 10 10 10 10 10 9 9 8 8 7 7 8 8 8 7 5 8
3 5 7 10 11 11 11 11 11 11 12 11 11 11 11 11 10 10 10 9 9 9 9 9 9 9 9 9 10 10 9 9 9 8 7 4 4 7 8 7 7 7 7
2 3 5 9 11 12 11 10 10 11 12 12 11 11 11 11 10 10 10 9 9 9 9 9 9 9 9 9 9 9 9 9 8 7 4 3 3 5 7 7 6 6 6
1 2 5 8 11 12 12 11 10 11 11 11 11 11 11 11 10 10 9 9 9 8 8 8 8 9 9 8 8 9 9 8 8 6 3 3 2 4 5 6 6 5 4
1 2 4 7 10 11 12 12 10 10 11 11 11 11 11 10 10 10 9 8 8 8 8 8 8 8 8 8 8 8 8 8 6 4 3 2 2 3 5 5 5 5 4
1 2 4 7 9 11 11 11 11 10 11 11 11 11 11 10 10 9 9 8 8 7 7 8 8 8 8 8 8 8 8 7 5 3 2 2 1 3 5 5 5 5 5
2 1 3 7 8 9 11 11 11 11 10 11 11 10 10 10 10 9 8 8 8 7 7 7 7 8 8 8 8 8 8 7 5 3 2 1 2 3 4 4 4 4 4
3 2 1 3 6 8 9 10 10 10 10 9 10 9 9 9 9 8 7 7 8 7 7 7 7 8 8 8 8 9 9 8 4 3 2 1 2 4 5 5 5 5 5
3 3 2 2 3 4 5 8 9 10 10 9 10 9 9 9 8 8 6 7 7 7 7 7 8 8 8 8 9 9 9 7 4 3 2 2 4 5 6 6 6 6 6
2 2 2 2 3 3 4 6 8 9 9 8 8 10 8 5 5 5 6 7 7 7 7 8 8 8 8 8 8 8 7 3 3 2 1 3 4 5 7 7 7 7 6
1 2 2 3 3 4 4 4 4 4 5 5 5 5 4 4 4 5 8 8 8 7 7 8 8 8 6 3 5 6 3 3 3 2 2 4 5 6 7 7 7 7 7
2 2 2 2 3 4 4 3 3 3 3 4 5 5 5 4 4 4 3 4 5 6 4 5 5 3 3 2 2 3 3 3 2 2 3 5 5 6 7 7 7 7 7
2 2 2 4 4 4 4 3 3 3 3 3 4 5 4 3 3 3 3 3 3 2 3 3 2 3 3 3 3 3 3 2 2 2 3 7 7 7 7 8 8 8 8
3 2 3 4 4 3 4 4 4 3 4 4 3 4 4 4 4 3 2 2 2 2 2 2 2 3 3 3 3 4 4 3 3 3 3 8 9 8 8 8 8 9 9
3 3 4 5 4 4 4 4 3 3 3 4 3 4 4 4 4 3 3 3 3 2 2 2 3 3 2 2 3 4 4 3 4 4 4 5 9 9 9 9 9 9 9
2 3 5 6 5 5 4 4 4 3 3 4 3 4 4 4 4 4 3 3 2 2 3 3 3 3 3 3 4 3 3 3 4 4 4 3 4 8 9 9 9 10 10
3 3 4 5 6 5 4 4 3 3 4 3 3 3 4 4 4 4 3 3 2 2 3 3 3 3 3 3 3 3 3 3 4 3 3 3 3 3 6 9 9 9 10
3 4 5 5 6 5 4 5 5 4 4 3 3 3 3 4 4 4 3 2 3 3 3 3 3 3 3 3 3 3 3 3 3 3 3 4 3 3 3 6 9 9 10
2 4 5 5 6 5 4 4 4 4 3 3 3 3 3 3 4 3 3 3 3 3 3 3 3 3 2 2 3 3 3 2 2 3 3 3 3 3 3 3 3 5 9
3 4 4 5 4 4 2 3 3 2 2 2 2 3 3 4 3 3 3 3 3 3 3 3 3 4 3 2 2 2 2 2 2 2 2 2 2 3 3 3 2 2 3
2 4 4 4 4 3 2 2 3 3 2 2 2 3 3 3 3 3 3 3 2 3 3 3 2 2 2 2 2 2 1 1 1 1 1 1 1 1 2 2 2 2 2
3 3 4 4 4 3 3 3 4 4 3 2 2 2 2 3 3 3 3 3 2 2 2 2 2 3 2 2 2 2 2 2 1 1 1 1 1 1 1 1 1 1 2
2 3 4 4 4 4 3 4 5 3 2 2 2 1 2 2 3 3 3 3 3 2 2 2 2 2 2 1 1 2 1 2 1 1 1 1 1 0 1 0 0 0 1
2 3 3 4 4 4 3 4 4 3 2 2 2 2 2 2 2 2 2 2 2 2 2 2 2 2 2 2 1 1 1 1 1 1 1 2 2 1 1 1 1 1 0
3 3 3 4 3 3 4 3 4 5 4 4 2 2 1 1 1 1 2 2 2 1 2 2 2 2 2 2 1 1 2 1 1 1 1 2 2 2 1 1 1 1 1
Wind_Direction
206 194 178 164 157 150 143 143 141 136 132 130 129 126 124 123 121 117 115 111 106 101 97 93 93 97 98 96 95 91 87 82 78 77 75 72 76 79 80 78 72 63 76
186 188 177 165 157 151 145 141 140 138 135 133 131 127 124 123 121 118 115 113 109 105 101 96 96 97 97 95 92 90 86 81 80 77 71 66 73 81 81 79 78 78 75
158 175 172 163 154 149 144 140 141 141 138 135 133 129 126 123 120 117 114 111 108 106 103 96 95 97 97 96 93 91 86 82 80 77 69 54 65 85 85 82 78 78 79
155 165 168 161 155 148 144 141 143 143 140 137 134 133 130 127 123 120 116 112 107 104 101 95 93 97 95 96 97 94 89 84 80 75 61 46 42 84 85 82 79 78 76
136 157 165 159 157 148 145 143 144 143 141 139 136 136 132 130 126 121 117 113 108 105 104 99 94 99 95 92 95 95 90 84 79 73 60 47 35 74 83 80 73 73 74
115 151 158 154 158 151 147 146 145 142 140 139 139 138 135 131 127 121 116 111 110 107 104 102 97 99 94 88 88 92 91 86 79 71 61 50 28 60 81 78 68 63 60
123 148 159 149 157 155 149 147 144 142 140 137 138 137 134 131 126 121 116 113 113 110 107 103 100 96 92 88 88 87 84 85 82 73 60 48 16 61 79 75 66 57 49
134 126 162 156 153 156 150 146 143 139 138 135 129 130 133 131 127 122 120 118 115 111 105 102 99 93 88 86 88 84 80 80 78 68 61 44 31 66 76 70 59 50 46
114 99 126 152 153 151 148 144 142 135 131 127 122 118 116 117 121 121 118 118 114 108 104 102 98 90 85 84 84 84 81 77 74 59 55 38 41 68 74 73 65 57 54
106 94 94 112 121 136 144 139 133 126 120 117 110 104 98 97 99 101 103 108 109 106 102 98 96 90 84 82 81 82 80 73 63 53 33 38 55 67 70 67 64 60 57
104 99 95 128 118 123 123 125 119 112 107 106 102 96 91 83 80 76 77 87 97 99 98 94 93 90 82 76 76 78 77 64 59 43 19 48 66 69 72 68 61 55 50
154 140 113 135 130 119 112 107 101 94 91 85 90 91 87 81 76 75 70 70 73 79 85 86 85 82 75 64 65 71 68 63 56 35 30 55 72 71 69 64 56 51 46
175 153 129 115 121 108 103 102 98 94 89 83 84 90 88 79 73 66 62 55 54 60 60 67 67 64 67 69 70 70 69 67 52 34 39 63 68 69 67 61 55 50 45
133 148 116 101 94 102 103 99 102 103 96 91 84 90 91 86 78 75 68 62 55 55 59 56 70 66 64 65 77 80 70 68 56 40 47 65 70 68 65 61 56 52 47
142 139 120 101 100 101 101 98 90 95 102 98 88 83 89 94 92 86 77 69 67 64 69 66 73 77 72 62 72 83 79 72 69 59 46 57 63 62 61 60 56 52 47
150 153 125 110 111 105 102 101 99 93 94 91 87 86 87 93 98 93 82 68 60 62 69 75 77 82 78 77 75 75 81 78 74 68 57 50 55 59 62 60 55 49 43
139 137 129 125 113 108 109 111 108 99 94 90 85 84 87 91 99 96 88 73 57 61 73 73 65 68 71 72 70 70 75 75 80 71 64 54 45 48 55 57 52 47 40
127 129 126 124 116 107 104 101 98 98 97 93 87 84 86 89 93 93 89 77 63 67 72 76 64 66 60 63 66 61 65 74 78 73 68 61 51 45 47 56 52 48 43
142 135 122 119 116 109 101 98 91 85 86 91 89 86 84 85 87 88 87 80 75 74 67 76 63 67 64 58 71 69 60 63 65 74 71 64 58 56 47 53 52 49 44
117 123 121 115 109 106 102 94 87 74 71 75 79 81 87 86 88 89 88 80 79 82 71 73 80 66 72 64 68 65 55 53 59 62 65 63 59 60 57 56 44 36 38
116 123 120 112 109 113 115 114 104 97 86 76 74 76 80 85 89 92 93 85 82 87 91 89 90 81 57 45 72 52 33 44 62 62 59 61 56 57 60 59 52 40 23
132 129 124 122 119 115 114 120 113 111 100 87 75 68 71 80 84 96 99 98 93 96 88 81 89 95 63 38 92 105 51 349 8 46 52 70 51 50 55 55 49 40 31
153 153 144 136 126 115 108 101 92 81 73 73 71 60 53 78 86 96 105 105 100 105 111 98 96 111 113 49 52 124 140 215 299 327 4 45 24 50 26 30 41 22 26
167 155 140 136 129 127 126 127 124 128 136 143 123 103 71 74 83 89 99 104 103 101 109 106 92 105 118 111 50 51 101 144 166 296 321 334 332 302 291 303 330 342 22
141 138 136 128 129 134 136 138 133 126 120 102 98 101 80 64 76 86 96 100 103 106 111 105 105 109 117 140 148 134 102 77 125 166 266 308 326 292 267 250 237 240 294
124 126 124 131 137 142 142 144 152 147 138 132 135 136 120 86 70 78 98 105 116 123 128 127 126 119 116 125 136 150 156 157 164 151 216 280 289 284 278 260 240 241 248